カタログに戻る

FENGYUN 1C DEB

運用中PO
NORAD 37478·DEBRIS·🇨🇳 China

打ち上げ May 10, 1999 から Taiyuan Satellite Launch Center

Loading…

次のパス (今後24時間)

TLE

最新Source: Space-Track

元期: Sep 14, 2026, 02:55 UTC

1 37478U 99025EJY 26257.12156040  .00002383  00000-0  36983-2 0  9992
2 37478  99.6550 216.5532 0548904  44.5644 319.8272 13.03848435601497

AllMySatでFENGYUN 1C DEBをリアルタイム追跡

Download on the App Store